Year,Month,Day,Hour,Minute,Value (Times are PST for temperature in C)
2009,07,03,00,00,19.60
2009,07,03,00,01,19.60
2009,07,03,00,06,19.50
2009,07,03,00,07,19.50
2009,07,03,00,08,19.50
2009,07,03,00,09,19.50
2009,07,03,00,10,19.50
2009,07,03,00,11,19.40
2009,07,03,00,12,19.40
2009,07,03,00,13,19.40
2009,07,03,00,14,19.30
2009,07,03,00,15,19.30
2009,07,03,00,16,19.30
2009,07,03,00,17,19.30
2009,07,03,00,18,19.20
2009,07,03,00,19,19.20
2009,07,03,00,20,19.20
2009,07,03,00,21,19.10
2009,07,03,00,22,19.10
2009,07,03,00,23,19.10
2009,07,03,00,24,19.10
2009,07,03,00,25,19.10
2009,07,03,00,26,19.10
2009,07,03,00,27,19.10
2009,07,03,00,28,19.10
2009,07,03,00,29,19.10
2009,07,03,00,30,19.10
2009,07,03,00,31,19.10
2009,07,03,00,32,19.10
2009,07,03,00,33,19.10
2009,07,03,00,34,19.10
2009,07,03,00,35,19.10
2009,07,03,00,36,19.10
2009,07,03,00,37,19.00
2009,07,03,00,38,18.90
2009,07,03,00,39,18.90
2009,07,03,00,40,18.90
2009,07,03,00,41,18.90
2009,07,03,00,42,18.90
2009,07,03,00,43,18.90
2009,07,03,00,44,18.90
2009,07,03,00,45,18.90
2009,07,03,00,46,18.80
2009,07,03,00,47,18.80
2009,07,03,00,48,18.70
2009,07,03,00,49,18.70
2009,07,03,00,50,18.70
2009,07,03,00,51,18.60
2009,07,03,00,52,18.60
2009,07,03,00,53,18.50
2009,07,03,00,54,18.50
2009,07,03,00,55,18.40
2009,07,03,00,56,18.40
2009,07,03,00,57,18.40
2009,07,03,00,58,18.30
2009,07,03,00,59,18.30
2009,07,03,01,00,18.20
2009,07,03,01,01,18.20
2009,07,03,01,02,18.20
2009,07,03,01,03,18.10
2009,07,03,01,04,18.10
2009,07,03,01,05,18.00
2009,07,03,01,06,17.90
2009,07,03,01,07,17.90
2009,07,03,01,08,17.80
2009,07,03,01,09,17.70
2009,07,03,01,10,17.60
2009,07,03,01,11,17.50
2009,07,03,01,12,17.50
2009,07,03,01,13,17.40
2009,07,03,01,14,17.30
2009,07,03,01,15,17.30
2009,07,03,01,16,17.20
2009,07,03,01,17,17.10
2009,07,03,01,18,17.00
2009,07,03,01,19,16.90
2009,07,03,01,20,16.90
2009,07,03,01,21,16.80
2009,07,03,01,22,16.70
2009,07,03,01,23,16.70
2009,07,03,01,24,16.60
2009,07,03,01,25,16.50
2009,07,03,01,26,16.40
2009,07,03,01,27,16.40
2009,07,03,01,28,16.30
2009,07,03,01,29,16.20
2009,07,03,01,30,16.20
2009,07,03,01,31,16.10
2009,07,03,01,32,16.10
2009,07,03,01,33,16.20
2009,07,03,01,34,16.20
2009,07,03,01,35,16.30
2009,07,03,01,36,16.50
2009,07,03,01,37,16.60
2009,07,03,01,38,16.80
2009,07,03,01,39,17.00
2009,07,03,01,40,17.10
2009,07,03,01,41,17.30
2009,07,03,01,42,17.30
2009,07,03,01,43,17.40
2009,07,03,01,44,17.40
2009,07,03,01,45,17.50
2009,07,03,01,46,17.50
2009,07,03,01,47,17.50
2009,07,03,01,48,17.60
2009,07,03,01,49,17.60
2009,07,03,01,50,17.60
2009,07,03,01,51,17.60
2009,07,03,01,52,17.60
2009,07,03,01,53,17.70
2009,07,03,01,54,17.70
2009,07,03,01,55,17.70
2009,07,03,01,56,17.60
2009,07,03,01,57,17.60
2009,07,03,01,58,17.60
2009,07,03,01,59,17.60
2009,07,03,02,00,17.50
2009,07,03,02,01,17.50
2009,07,03,02,02,17.40
2009,07,03,02,03,17.40
2009,07,03,02,04,17.30
2009,07,03,02,05,17.30
2009,07,03,02,06,17.20
2009,07,03,02,07,17.10
2009,07,03,02,08,17.00
2009,07,03,02,09,16.90
2009,07,03,02,10,16.80
2009,07,03,02,11,16.70
2009,07,03,02,12,16.70
2009,07,03,02,13,16.50
2009,07,03,02,14,16.40
2009,07,03,02,15,16.40
2009,07,03,02,16,16.30
2009,07,03,02,17,16.20
2009,07,03,02,18,16.10
2009,07,03,02,19,16.10
2009,07,03,02,20,15.90
2009,07,03,02,21,15.90
2009,07,03,02,22,15.80
2009,07,03,02,23,15.80
2009,07,03,02,24,15.70
2009,07,03,02,25,15.60
2009,07,03,02,26,15.50
2009,07,03,02,27,15.50
2009,07,03,02,28,15.40
2009,07,03,02,29,15.30
2009,07,03,02,30,15.30
2009,07,03,02,31,15.30
2009,07,03,02,32,15.20
2009,07,03,02,33,15.10
2009,07,03,02,34,15.10
2009,07,03,02,35,15.00
2009,07,03,02,36,14.90
2009,07,03,02,37,14.80
2009,07,03,02,38,14.80
2009,07,03,02,39,14.70
2009,07,03,02,40,14.60
2009,07,03,02,41,14.60
2009,07,03,02,42,14.50
2009,07,03,02,43,14.40
2009,07,03,02,44,14.40
2009,07,03,02,45,14.30
2009,07,03,02,46,14.30
2009,07,03,02,47,14.30
2009,07,03,02,48,14.20
2009,07,03,02,49,14.20
2009,07,03,02,50,14.20
2009,07,03,02,51,14.20
2009,07,03,02,52,14.20
2009,07,03,02,53,14.20
2009,07,03,02,54,14.20
2009,07,03,02,55,14.20
2009,07,03,02,56,14.20
2009,07,03,02,57,14.20
2009,07,03,02,58,14.20
2009,07,03,02,59,14.20
2009,07,03,03,00,14.20
2009,07,03,03,01,14.20
2009,07,03,03,02,14.20
2009,07,03,03,03,14.20
2009,07,03,03,04,14.20
2009,07,03,03,05,14.20
2009,07,03,03,06,14.20
2009,07,03,03,07,14.20
2009,07,03,03,08,14.20
2009,07,03,03,09,14.20
2009,07,03,03,10,14.20
2009,07,03,03,11,14.20
2009,07,03,03,12,14.20
2009,07,03,03,13,14.10
2009,07,03,03,14,14.10
2009,07,03,03,15,14.10
2009,07,03,03,16,14.00
2009,07,03,03,17,14.00
2009,07,03,03,18,13.90
2009,07,03,03,19,13.90
2009,07,03,03,20,13.80
2009,07,03,03,21,13.80
2009,07,03,03,22,13.70
2009,07,03,03,23,13.70
2009,07,03,03,24,13.60
2009,07,03,03,25,13.50
2009,07,03,03,26,13.50
2009,07,03,03,27,13.50
2009,07,03,03,28,13.40
2009,07,03,03,29,13.30
2009,07,03,03,30,13.30
2009,07,03,03,31,13.30
2009,07,03,03,32,13.30
2009,07,03,03,33,13.20
2009,07,03,03,34,13.20
2009,07,03,03,35,13.20
2009,07,03,03,36,13.10
2009,07,03,03,37,13.10
2009,07,03,03,38,13.10
2009,07,03,03,39,13.00
2009,07,03,03,40,13.00
2009,07,03,03,41,12.90
2009,07,03,03,42,12.90
2009,07,03,03,43,12.90
2009,07,03,03,44,12.90
2009,07,03,03,45,12.80
2009,07,03,03,46,12.80
2009,07,03,03,47,12.80
2009,07,03,03,48,12.80
2009,07,03,03,49,12.80
2009,07,03,03,50,12.80
2009,07,03,03,51,12.80
2009,07,03,03,52,12.80
2009,07,03,03,53,12.80
2009,07,03,03,54,12.80
2009,07,03,03,55,12.80
2009,07,03,03,56,12.80
2009,07,03,03,57,12.80
2009,07,03,03,58,12.80
2009,07,03,03,59,12.80
2009,07,03,04,00,12.80
2009,07,03,04,01,12.80
2009,07,03,04,02,12.80
2009,07,03,04,03,12.80
2009,07,03,04,04,12.80
2009,07,03,04,05,12.80
2009,07,03,04,06,12.80
2009,07,03,04,07,12.80
2009,07,03,04,08,12.80
2009,07,03,04,09,12.80
2009,07,03,04,10,12.80
2009,07,03,04,11,12.70
2009,07,03,04,12,12.70
2009,07,03,04,13,12.70
2009,07,03,04,14,12.60
2009,07,03,04,15,12.60
2009,07,03,04,16,12.60
2009,07,03,04,17,12.60
2009,07,03,04,18,12.60
2009,07,03,04,19,12.50
2009,07,03,04,20,12.50
2009,07,03,04,21,12.50
2009,07,03,04,22,12.40
2009,07,03,04,23,12.40
2009,07,03,04,24,12.40
2009,07,03,04,25,12.30
2009,07,03,04,26,12.30
2009,07,03,04,27,12.30
2009,07,03,04,28,12.30
2009,07,03,04,29,12.30
2009,07,03,04,30,12.20
2009,07,03,04,31,12.20
2009,07,03,04,32,12.10
2009,07,03,04,33,12.10
2009,07,03,04,34,12.10
2009,07,03,04,35,12.00
2009,07,03,04,36,12.00
2009,07,03,04,37,12.00
2009,07,03,04,38,12.00
2009,07,03,04,39,11.90
2009,07,03,04,40,11.90
2009,07,03,04,41,11.90
2009,07,03,04,42,11.90
2009,07,03,04,43,11.80
2009,07,03,04,44,11.80
2009,07,03,04,45,11.80
2009,07,03,04,46,11.80
2009,07,03,04,47,11.80
2009,07,03,04,48,11.80
2009,07,03,04,49,11.80
2009,07,03,04,50,11.80
2009,07,03,04,51,11.80
2009,07,03,04,52,11.70
2009,07,03,04,53,11.70
2009,07,03,04,54,11.70
2009,07,03,04,55,11.70
2009,07,03,04,56,11.60
2009,07,03,04,57,11.60
2009,07,03,04,58,11.60
2009,07,03,04,59,11.60
2009,07,03,05,00,11.60
2009,07,03,05,01,11.60
2009,07,03,05,02,11.60
2009,07,03,05,03,11.60
2009,07,03,05,04,11.60
2009,07,03,05,05,11.60
2009,07,03,05,06,11.60
2009,07,03,05,07,11.60
2009,07,03,05,08,11.60
2009,07,03,05,09,11.60
2009,07,03,05,10,11.60
2009,07,03,05,11,11.60
2009,07,03,05,12,11.60
2009,07,03,05,13,11.60
2009,07,03,05,14,11.60
2009,07,03,05,15,11.60
2009,07,03,05,16,11.60
2009,07,03,05,17,11.60
2009,07,03,05,18,11.50
2009,07,03,05,19,11.40
2009,07,03,05,20,11.40
2009,07,03,05,21,11.40
2009,07,03,05,22,11.40
2009,07,03,05,23,11.40
2009,07,03,05,24,11.40
2009,07,03,05,25,11.40
2009,07,03,05,26,11.40
2009,07,03,05,27,11.40
2009,07,03,05,28,11.30
2009,07,03,05,29,11.30
2009,07,03,05,30,11.30
2009,07,03,05,31,11.30
2009,07,03,05,32,11.20
2009,07,03,05,33,11.20
2009,07,03,05,34,11.20
2009,07,03,05,35,11.10
2009,07,03,05,36,11.10
2009,07,03,05,37,11.10
2009,07,03,05,38,11.10
2009,07,03,05,39,11.10
2009,07,03,05,40,11.10
2009,07,03,05,41,11.10
2009,07,03,05,42,11.10
2009,07,03,05,43,11.10
2009,07,03,05,44,11.10
2009,07,03,05,45,11.10
2009,07,03,05,46,11.10
2009,07,03,05,47,11.10
2009,07,03,05,48,11.10
2009,07,03,05,49,11.10
2009,07,03,05,50,11.10
2009,07,03,05,51,11.10
2009,07,03,05,52,11.10
2009,07,03,05,53,11.10
2009,07,03,05,54,11.10
2009,07,03,05,55,11.10
2009,07,03,05,56,11.10
2009,07,03,05,57,11.10
2009,07,03,05,58,11.10
2009,07,03,05,59,11.10
2009,07,03,06,00,11.10
2009,07,03,06,01,11.10
2009,07,03,06,02,11.10
2009,07,03,06,03,11.10
2009,07,03,06,04,11.10
2009,07,03,06,05,11.20
2009,07,03,06,06,11.20
2009,07,03,06,07,11.20
2009,07,03,06,08,11.20
2009,07,03,06,09,11.20
2009,07,03,06,10,11.20
2009,07,03,06,11,11.30
2009,07,03,06,12,11.30
2009,07,03,06,13,11.30
2009,07,03,06,14,11.30
2009,07,03,06,15,11.30
2009,07,03,06,16,11.30
2009,07,03,06,17,11.30
2009,07,03,06,18,11.30
2009,07,03,06,19,11.40
2009,07,03,06,20,11.40
2009,07,03,06,21,11.40
2009,07,03,06,22,11.40
2009,07,03,06,23,11.40
2009,07,03,06,24,11.40
2009,07,03,06,25,11.40
2009,07,03,06,26,11.50
2009,07,03,06,27,11.70
2009,07,03,06,28,11.80
2009,07,03,06,29,11.80
2009,07,03,06,30,11.80
2009,07,03,06,31,11.80
2009,07,03,06,32,11.90
2009,07,03,06,33,11.90
2009,07,03,06,34,12.00
2009,07,03,06,35,12.00
2009,07,03,06,36,12.00
2009,07,03,06,37,12.00
2009,07,03,06,38,12.00
2009,07,03,06,39,12.10
2009,07,03,06,40,12.10
2009,07,03,06,41,12.10
2009,07,03,06,42,12.10
2009,07,03,06,43,12.10
2009,07,03,06,44,12.20
2009,07,03,06,45,12.20
2009,07,03,06,46,12.20
2009,07,03,06,47,12.20
2009,07,03,06,48,12.30
2009,07,03,06,49,12.30
2009,07,03,06,50,12.30
2009,07,03,06,51,12.30
2009,07,03,06,52,12.40
2009,07,03,06,53,12.40
2009,07,03,06,54,12.50
2009,07,03,06,55,12.50
2009,07,03,06,56,12.60
2009,07,03,06,57,12.70
2009,07,03,06,58,12.80
2009,07,03,06,59,12.90
2009,07,03,07,00,12.90
2009,07,03,07,01,13.00
2009,07,03,07,02,13.10
2009,07,03,07,03,13.20
2009,07,03,07,04,13.20
2009,07,03,07,05,13.30
2009,07,03,07,06,13.30
2009,07,03,07,07,13.30
2009,07,03,07,08,13.30
2009,07,03,07,09,13.40
2009,07,03,07,10,13.40
2009,07,03,07,11,13.50
2009,07,03,07,12,13.60
2009,07,03,07,13,13.70
2009,07,03,07,14,13.70
2009,07,03,07,15,13.80
2009,07,03,07,16,13.90
2009,07,03,07,17,14.00
2009,07,03,07,18,14.10
2009,07,03,07,19,14.20
2009,07,03,07,20,14.30
2009,07,03,07,21,14.40
2009,07,03,07,22,14.50
2009,07,03,07,23,14.70
2009,07,03,07,24,14.80
2009,07,03,07,25,15.00
2009,07,03,07,26,15.10
2009,07,03,07,27,15.30
2009,07,03,07,28,15.40
2009,07,03,07,29,15.60
2009,07,03,07,30,15.70
2009,07,03,07,31,15.80
2009,07,03,07,32,15.90
2009,07,03,07,33,16.10
2009,07,03,07,34,16.20
2009,07,03,07,35,16.30
2009,07,03,07,36,16.40
2009,07,03,07,37,16.50
2009,07,03,07,38,16.60
2009,07,03,07,39,16.70
2009,07,03,07,40,16.80
2009,07,03,07,41,16.80
2009,07,03,07,42,16.90
2009,07,03,07,43,17.00
2009,07,03,07,44,17.10
2009,07,03,07,45,17.20
2009,07,03,07,46,17.30
2009,07,03,07,47,17.30
2009,07,03,07,48,17.30
2009,07,03,07,49,17.40
2009,07,03,07,50,17.40
2009,07,03,07,51,17.40
2009,07,03,07,52,17.50
2009,07,03,07,53,17.50
2009,07,03,07,54,17.60
2009,07,03,07,55,17.60
2009,07,03,07,56,17.60
2009,07,03,07,57,17.60
2009,07,03,07,58,17.70
2009,07,03,07,59,17.70
2009,07,03,08,00,17.70
2009,07,03,08,01,17.70
2009,07,03,08,02,17.80
2009,07,03,08,03,17.80
2009,07,03,08,04,17.80
2009,07,03,08,05,17.80
2009,07,03,08,06,17.80
2009,07,03,08,07,17.80
2009,07,03,08,08,17.80
2009,07,03,08,09,17.90
2009,07,03,08,10,17.90
2009,07,03,08,11,17.90
2009,07,03,08,12,17.90
2009,07,03,08,13,17.90
2009,07,03,08,14,17.90
2009,07,03,08,15,17.90
2009,07,03,08,16,17.90
2009,07,03,08,17,18.00
2009,07,03,08,18,18.10
2009,07,03,08,19,18.10
2009,07,03,08,20,18.10
2009,07,03,08,21,18.10
2009,07,03,08,22,18.10
2009,07,03,08,23,18.10
2009,07,03,08,24,18.00
2009,07,03,08,25,17.90
2009,07,03,08,26,17.90
2009,07,03,08,27,18.00
2009,07,03,08,28,18.10
2009,07,03,08,29,18.10
2009,07,03,08,30,18.10
2009,07,03,08,31,18.00
2009,07,03,08,32,17.90
2009,07,03,08,33,18.00
2009,07,03,08,34,18.10
2009,07,03,08,35,18.10
2009,07,03,08,36,18.10
2009,07,03,08,37,18.10
2009,07,03,08,38,18.10
2009,07,03,08,39,18.10
2009,07,03,08,40,18.20
2009,07,03,08,41,18.20
2009,07,03,08,42,18.20
2009,07,03,08,43,18.20
2009,07,03,08,44,18.20
2009,07,03,08,45,18.20
2009,07,03,08,46,18.20
2009,07,03,08,47,18.20
2009,07,03,08,48,18.20
2009,07,03,08,49,18.20
2009,07,03,08,50,18.30
2009,07,03,08,51,18.30
2009,07,03,08,52,18.30
2009,07,03,08,53,18.30
2009,07,03,08,54,18.20
2009,07,03,08,55,18.20
2009,07,03,08,56,18.20
2009,07,03,08,57,18.20
2009,07,03,08,58,18.20
2009,07,03,08,59,18.20
2009,07,03,09,00,18.20
2009,07,03,09,01,18.10
2009,07,03,09,02,18.20
2009,07,03,09,03,18.20
2009,07,03,09,04,18.20
2009,07,03,09,05,18.20
2009,07,03,09,06,18.20
2009,07,03,09,07,18.20
2009,07,03,09,08,18.20
2009,07,03,09,09,18.20
2009,07,03,09,10,18.20
2009,07,03,09,11,18.30
2009,07,03,09,12,18.30
2009,07,03,09,13,18.30
2009,07,03,09,14,18.30
2009,07,03,09,15,18.30
2009,07,03,09,16,18.30
2009,07,03,09,17,18.30
2009,07,03,09,18,18.40
2009,07,03,09,19,18.40
2009,07,03,09,20,18.50
2009,07,03,09,21,18.50
2009,07,03,09,22,18.60
2009,07,03,09,23,18.60
2009,07,03,09,24,18.60
2009,07,03,09,25,18.60
2009,07,03,09,26,18.60
2009,07,03,09,27,18.60
2009,07,03,09,28,18.60
2009,07,03,09,29,18.60
2009,07,03,09,30,18.60
2009,07,03,09,31,18.60
2009,07,03,09,32,18.60
2009,07,03,09,33,18.60
2009,07,03,09,34,18.60
2009,07,03,09,35,18.70
2009,07,03,09,36,18.70
2009,07,03,09,37,18.70
2009,07,03,09,38,18.70
2009,07,03,09,39,18.70
2009,07,03,09,40,18.70
2009,07,03,09,41,18.70
2009,07,03,09,42,18.70
2009,07,03,09,43,18.70
2009,07,03,09,44,18.70
2009,07,03,09,45,18.80
2009,07,03,09,46,18.80
2009,07,03,09,47,18.80
2009,07,03,09,48,18.70
2009,07,03,09,49,18.70
2009,07,03,09,50,18.70
2009,07,03,09,51,18.70
2009,07,03,09,52,18.70
2009,07,03,09,53,18.80
2009,07,03,09,54,18.80
2009,07,03,09,55,18.80
2009,07,03,09,56,18.80
2009,07,03,09,57,18.80
2009,07,03,09,58,18.80
2009,07,03,09,59,18.90
2009,07,03,10,00,18.90
2009,07,03,10,01,18.90
2009,07,03,10,02,18.90
2009,07,03,10,03,18.90
2009,07,03,10,04,18.90
2009,07,03,10,05,18.90
2009,07,03,10,06,18.90
2009,07,03,10,07,18.90
2009,07,03,10,08,18.90
2009,07,03,10,09,18.90
2009,07,03,10,10,18.90
2009,07,03,10,11,18.90
2009,07,03,10,12,18.90
2009,07,03,10,13,18.90
2009,07,03,10,14,19.00
2009,07,03,10,15,19.10
2009,07,03,10,16,19.10
2009,07,03,10,17,19.10
2009,07,03,10,18,19.10
2009,07,03,10,19,19.10
2009,07,03,10,20,19.10
2009,07,03,10,21,19.10
2009,07,03,10,22,19.10
2009,07,03,10,23,19.10
2009,07,03,10,24,19.20
2009,07,03,10,25,19.10
2009,07,03,10,26,19.10
2009,07,03,10,27,19.20
2009,07,03,10,28,19.20
2009,07,03,10,29,19.30
2009,07,03,10,30,19.30
2009,07,03,10,31,19.30
2009,07,03,10,32,19.30
2009,07,03,10,33,19.30
2009,07,03,10,34,19.40
2009,07,03,10,35,19.40
2009,07,03,10,36,19.40
2009,07,03,10,37,19.40
2009,07,03,10,38,19.30
2009,07,03,10,39,19.30
2009,07,03,10,40,19.30
2009,07,03,10,41,19.20
2009,07,03,10,42,19.20
2009,07,03,10,43,19.10
2009,07,03,10,44,19.10
2009,07,03,10,45,19.10
2009,07,03,10,46,19.10
2009,07,03,10,47,19.10
2009,07,03,10,48,19.20
2009,07,03,10,49,19.30
2009,07,03,10,50,19.30
2009,07,03,10,51,19.40
2009,07,03,10,52,19.40
2009,07,03,10,53,19.40
2009,07,03,10,54,19.40
2009,07,03,10,55,19.30
2009,07,03,10,56,19.30
2009,07,03,10,57,19.30
2009,07,03,10,58,19.40
2009,07,03,10,59,19.40
2009,07,03,11,00,19.40
2009,07,03,11,01,19.40
2009,07,03,11,02,19.40
2009,07,03,11,03,19.40
2009,07,03,11,04,19.40
2009,07,03,11,05,19.40
2009,07,03,11,06,19.50
2009,07,03,11,07,19.50
2009,07,03,11,08,19.60
2009,07,03,11,09,19.70
2009,07,03,11,10,19.70
2009,07,03,11,11,19.70
2009,07,03,11,12,19.70
2009,07,03,11,13,19.80
2009,07,03,11,14,19.80
2009,07,03,11,15,19.80
2009,07,03,11,16,19.90
2009,07,03,11,17,19.90
2009,07,03,11,18,19.90
2009,07,03,11,19,20.00
2009,07,03,11,20,20.00
2009,07,03,11,21,19.90
2009,07,03,11,22,19.90
2009,07,03,11,23,19.90
2009,07,03,11,24,19.90
2009,07,03,11,25,19.80
2009,07,03,11,26,19.80
2009,07,03,11,27,19.80
2009,07,03,11,28,19.80
2009,07,03,11,29,19.70
2009,07,03,11,30,19.70
2009,07,03,11,31,19.70
2009,07,03,11,32,19.80
2009,07,03,11,33,19.90
2009,07,03,11,34,19.90
2009,07,03,11,35,20.00
2009,07,03,11,36,20.10
2009,07,03,11,37,20.20
2009,07,03,11,38,20.20
2009,07,03,11,39,20.30
2009,07,03,11,40,20.40
2009,07,03,11,41,20.40
2009,07,03,11,42,20.40
2009,07,03,11,43,20.40
2009,07,03,11,44,20.30
2009,07,03,11,45,20.30
2009,07,03,11,46,20.30
2009,07,03,11,47,20.20
2009,07,03,11,48,20.10
2009,07,03,11,49,20.00
2009,07,03,11,50,19.90
2009,07,03,11,51,19.70
2009,07,03,11,52,19.50
2009,07,03,11,53,19.40
2009,07,03,11,54,19.40
2009,07,03,11,55,19.40
2009,07,03,11,56,19.40
2009,07,03,11,57,19.40
2009,07,03,11,58,19.50
2009,07,03,11,59,19.60
2009,07,03,12,00,19.50
2009,07,03,12,01,19.60
2009,07,03,12,02,19.60
2009,07,03,12,03,19.70
2009,07,03,12,04,19.80
2009,07,03,12,05,19.80
2009,07,03,12,06,19.90
2009,07,03,12,07,19.90
2009,07,03,12,08,19.90
2009,07,03,12,09,19.90
2009,07,03,12,10,19.90
2009,07,03,12,11,20.00
2009,07,03,12,12,20.10
2009,07,03,12,13,20.10
2009,07,03,12,14,20.20
2009,07,03,12,15,20.20
2009,07,03,12,16,20.20
2009,07,03,12,17,20.20
2009,07,03,12,18,20.30
2009,07,03,12,19,20.40
2009,07,03,12,20,20.40
2009,07,03,12,21,20.40
2009,07,03,12,22,20.40
2009,07,03,12,23,20.40
2009,07,03,12,24,20.40
2009,07,03,12,25,20.40
2009,07,03,12,26,20.50
2009,07,03,12,27,20.60
2009,07,03,12,28,20.60
2009,07,03,12,29,20.60
2009,07,03,12,30,20.70
2009,07,03,12,31,20.70
2009,07,03,12,32,20.70
2009,07,03,12,33,20.80
2009,07,03,12,34,20.80
2009,07,03,12,35,20.80
2009,07,03,12,36,20.80
2009,07,03,12,37,20.90
2009,07,03,12,38,21.00
2009,07,03,12,39,21.10
2009,07,03,12,40,21.10
2009,07,03,12,41,21.20
2009,07,03,12,42,21.30
2009,07,03,12,43,21.30
2009,07,03,12,44,21.20
2009,07,03,12,45,21.10
2009,07,03,12,46,21.10
2009,07,03,12,47,21.20
2009,07,03,12,48,21.10
2009,07,03,12,49,21.00
2009,07,03,12,50,21.00
2009,07,03,12,51,21.00
2009,07,03,12,52,21.00
2009,07,03,12,53,21.00
2009,07,03,12,54,21.00
2009,07,03,12,55,21.00
2009,07,03,12,56,21.10
2009,07,03,12,57,21.20
2009,07,03,12,58,21.20
2009,07,03,12,59,21.30
2009,07,03,13,00,21.30
2009,07,03,13,01,21.40
2009,07,03,13,02,21.40
2009,07,03,13,03,21.60
2009,07,03,13,04,21.60
2009,07,03,13,05,21.60
2009,07,03,13,06,21.60
2009,07,03,13,07,21.60
2009,07,03,13,08,21.70
2009,07,03,13,09,21.70
2009,07,03,13,10,21.70
2009,07,03,13,11,21.70
2009,07,03,13,12,21.70
2009,07,03,13,13,21.80
2009,07,03,13,14,21.90
2009,07,03,13,15,22.00
2009,07,03,13,16,22.10
2009,07,03,13,17,22.10
2009,07,03,13,18,22.10
2009,07,03,13,19,22.10
2009,07,03,13,20,22.10
2009,07,03,13,21,22.10
2009,07,03,13,22,22.20
2009,07,03,13,23,22.20
2009,07,03,13,24,22.30
2009,07,03,13,25,22.40
2009,07,03,13,26,22.50
2009,07,03,13,27,22.50
2009,07,03,13,28,22.60
2009,07,03,13,29,22.60
2009,07,03,13,30,22.70
2009,07,03,13,31,22.80
2009,07,03,13,32,22.80
2009,07,03,13,33,22.90
2009,07,03,13,34,22.80
2009,07,03,13,35,22.80
2009,07,03,13,36,22.80
2009,07,03,13,37,22.80
2009,07,03,13,38,22.90
2009,07,03,13,39,22.90
2009,07,03,13,40,22.90
2009,07,03,13,41,22.90
2009,07,03,13,42,22.80
2009,07,03,13,43,22.70
2009,07,03,13,44,22.60
2009,07,03,13,45,22.50
2009,07,03,13,46,22.50
2009,07,03,13,47,22.50
2009,07,03,13,48,22.50
2009,07,03,13,49,22.50
2009,07,03,13,50,22.60
2009,07,03,13,51,22.70
2009,07,03,13,52,22.80
2009,07,03,13,53,22.80
2009,07,03,13,54,22.80
2009,07,03,13,55,22.80
2009,07,03,13,56,22.70
2009,07,03,13,57,22.70
2009,07,03,13,58,22.60
2009,07,03,13,59,22.60
2009,07,03,14,00,22.60
2009,07,03,14,01,22.70
2009,07,03,14,02,22.80
2009,07,03,14,03,22.90
2009,07,03,14,04,23.00
2009,07,03,14,05,23.10
2009,07,03,14,06,23.20
2009,07,03,14,07,23.30
2009,07,03,14,08,23.30
2009,07,03,14,09,23.20
2009,07,03,14,10,23.20
2009,07,03,14,11,23.00
2009,07,03,14,12,22.90
2009,07,03,14,13,22.90
2009,07,03,14,14,22.90
2009,07,03,14,15,22.90
2009,07,03,14,16,22.80
2009,07,03,14,17,22.90
2009,07,03,14,18,22.90
2009,07,03,14,19,23.00
2009,07,03,14,20,23.10
2009,07,03,14,21,23.20
2009,07,03,14,22,23.30
2009,07,03,14,23,23.30
2009,07,03,14,24,23.30
2009,07,03,14,25,23.40
2009,07,03,14,26,23.40
2009,07,03,14,27,23.50
2009,07,03,14,28,23.60
2009,07,03,14,29,23.70
2009,07,03,14,30,23.70
2009,07,03,14,31,23.70
2009,07,03,14,32,23.80
2009,07,03,14,33,23.90
2009,07,03,14,34,23.90
2009,07,03,14,35,23.80
2009,07,03,14,36,23.80
2009,07,03,14,37,23.80
2009,07,03,14,38,23.80
2009,07,03,14,39,24.00
2009,07,03,14,40,24.10
2009,07,03,14,41,24.20
2009,07,03,14,42,24.30
2009,07,03,14,43,24.40
2009,07,03,14,44,24.50
2009,07,03,14,45,24.60
2009,07,03,14,46,24.70
2009,07,03,14,47,24.80
2009,07,03,14,48,24.80
2009,07,03,14,49,24.80
2009,07,03,14,50,24.80
2009,07,03,14,51,24.80
2009,07,03,14,52,24.90
2009,07,03,14,53,25.00
2009,07,03,14,54,25.10
2009,07,03,14,55,25.20
2009,07,03,14,56,25.20
2009,07,03,14,57,25.20
2009,07,03,14,58,25.10
2009,07,03,14,59,25.00
2009,07,03,15,00,25.00
2009,07,03,15,01,25.10
2009,07,03,15,02,25.10
2009,07,03,15,03,25.00
2009,07,03,15,04,25.00
2009,07,03,15,05,25.10
2009,07,03,15,06,25.00
2009,07,03,15,07,24.90
2009,07,03,15,08,24.90
2009,07,03,15,09,25.00
2009,07,03,15,10,25.10
2009,07,03,15,11,25.20
2009,07,03,15,12,25.30
2009,07,03,15,13,25.30
2009,07,03,15,14,25.40
2009,07,03,15,15,25.50
2009,07,03,15,16,25.50
2009,07,03,15,17,25.60
2009,07,03,15,18,25.80
2009,07,03,15,19,25.90
2009,07,03,15,20,25.90
2009,07,03,15,21,26.00
2009,07,03,15,22,26.10
2009,07,03,15,23,26.20
2009,07,03,15,24,26.30
2009,07,03,15,25,26.30
2009,07,03,15,26,26.20
2009,07,03,15,27,26.20
2009,07,03,15,28,26.20
2009,07,03,15,29,26.20
2009,07,03,15,30,26.20
2009,07,03,15,31,26.00
2009,07,03,15,32,26.00
2009,07,03,15,33,26.00
2009,07,03,15,34,26.00
2009,07,03,15,35,26.00
2009,07,03,15,36,26.00
2009,07,03,15,37,25.90
2009,07,03,15,38,25.90
2009,07,03,15,39,25.80
2009,07,03,15,40,25.70
2009,07,03,15,41,25.70
2009,07,03,15,42,25.60
2009,07,03,15,43,25.60
2009,07,03,15,44,25.50
2009,07,03,15,45,25.50
2009,07,03,15,46,25.50
2009,07,03,15,47,25.60
2009,07,03,15,48,25.70
2009,07,03,15,49,25.80
2009,07,03,15,50,25.90
2009,07,03,15,51,26.00
2009,07,03,15,52,26.20
2009,07,03,15,53,26.30
2009,07,03,15,54,26.40
2009,07,03,15,55,26.60
2009,07,03,15,56,26.60
2009,07,03,15,57,26.60
2009,07,03,15,58,26.60
2009,07,03,15,59,26.60
2009,07,03,16,00,26.50
2009,07,03,16,01,26.40
2009,07,03,16,02,26.40
2009,07,03,16,03,26.40
2009,07,03,16,04,26.40
2009,07,03,16,05,26.40
2009,07,03,16,06,26.40
2009,07,03,16,07,26.40
2009,07,03,16,08,26.40
2009,07,03,16,09,26.40
2009,07,03,16,10,26.50
2009,07,03,16,11,26.60
2009,07,03,16,12,26.60
2009,07,03,16,13,26.40
2009,07,03,16,14,26.40
2009,07,03,16,15,26.40
2009,07,03,16,16,26.60
2009,07,03,16,17,26.50
2009,07,03,16,18,26.40
2009,07,03,16,19,26.30
2009,07,03,16,20,26.20
2009,07,03,16,21,26.20
2009,07,03,16,22,26.20
2009,07,03,16,23,26.20
2009,07,03,16,24,26.30
2009,07,03,16,25,26.40
2009,07,03,16,26,26.50
2009,07,03,16,27,26.60
2009,07,03,16,28,26.60
2009,07,03,16,29,26.70
2009,07,03,16,30,26.70
2009,07,03,16,31,26.80
2009,07,03,16,32,26.80
2009,07,03,16,33,26.80
2009,07,03,16,34,26.80
2009,07,03,16,35,26.80
2009,07,03,16,36,26.70
2009,07,03,16,37,26.70
2009,07,03,16,38,26.60
2009,07,03,16,39,26.60
2009,07,03,16,40,26.60
2009,07,03,16,41,26.60
2009,07,03,16,42,26.40
2009,07,03,16,43,26.40
2009,07,03,16,44,26.40
2009,07,03,16,45,26.40
2009,07,03,16,46,26.50
2009,07,03,16,47,26.60
2009,07,03,16,48,26.70
2009,07,03,16,49,26.80
2009,07,03,16,50,26.90
2009,07,03,16,51,27.00
2009,07,03,16,52,27.10
2009,07,03,16,53,27.10
2009,07,03,16,54,27.10
2009,07,03,16,55,27.20
2009,07,03,16,56,27.10
2009,07,03,16,57,27.10
2009,07,03,16,58,27.10
2009,07,03,16,59,27.10
2009,07,03,17,00,27.20
2009,07,03,17,01,27.20
2009,07,03,17,02,27.30
2009,07,03,17,03,27.20
2009,07,03,17,04,27.10
2009,07,03,17,05,27.00
2009,07,03,17,06,26.80
2009,07,03,17,07,26.80
2009,07,03,17,08,26.80
2009,07,03,17,09,26.80
2009,07,03,17,10,26.90
2009,07,03,17,11,27.00
2009,07,03,17,12,27.10
2009,07,03,17,13,27.20
2009,07,03,17,14,27.20
2009,07,03,17,15,27.30
2009,07,03,17,16,27.30
2009,07,03,17,17,27.20
2009,07,03,17,18,27.20
2009,07,03,17,19,27.20
2009,07,03,17,20,27.10
2009,07,03,17,21,27.10
2009,07,03,17,22,27.10
2009,07,03,17,23,27.10